This is the latest recevied weather packets stored in our database for station/object IW2LSY-11. If no packets are shown the sender has not sent any weather packets the latest 10 day(s).
| Time | Temp. | Humidity | Pressure | Rain* | Wind** | Luminosity | Snow |
|---|---|---|---|---|---|---|---|
| 1777621814 | 18.89° C | 33% | 1027.3 hPa | - | - | 360 W/m² | - |
| 1777621214 | 19.44° C | 33% | 1027.3 hPa | - | - | 360 W/m² | - |
| 1777620615 | 18.89° C | 34% | 1027.3 hPa | - | - | 360 W/m² | - |
| 1777620015 | 17.22° C | 34% | 1027.2 hPa | - | - | 361 W/m² | - |
| 1777619415 | 18.33° C | 34% | 1027.3 hPa | - | - | 361 W/m² | - |
| 1777618815 | 20° C | 32% | 1027.2 hPa | - | - | 361 W/m² | - |
| 1777618215 | 19.44° C | 36% | 1027.2 hPa | - | - | 361 W/m² | - |
| 1777617605 | 18.89° C | 38% | 1027.3 hPa | - | - | 361 W/m² | - |
| 1777617005 | 16.67° C | 43% | 1027.3 hPa | - | - | 362 W/m² | - |
| 1777616405 | 15.56° C | 47% | 1027.2 hPa | - | - | 362 W/m² | - |
| 1777615806 | 15.56° C | 52% | 1027.2 hPa | - | - | 363 W/m² | - |
| 1777615207 | 13.89° C | 54% | 1027.2 hPa | - | - | 363 W/m² | - |
| 1777614608 | 13.89° C | 59% | 1027.1 hPa | - | - | 363 W/m² | - |
| 1777614009 | 13.89° C | 58% | 1027 hPa | - | - | 363 W/m² | - |
| 1777613410 | 13.89° C | 59% | 1026.9 hPa | - | - | 363 W/m² | - |
| 1777612811 | 13.89° C | 61% | 1026.8 hPa | - | - | 364 W/m² | - |
| 1777612211 | 13.89° C | 63% | 1026.7 hPa | - | - | 364 W/m² | - |
| 1777611612 | 13.33° C | 65% | 1026.7 hPa | - | - | 365 W/m² | - |
| 1777611012 | 13.33° C | 68% | 1026.6 hPa | - | - | 365 W/m² | - |
| 1777610412 | 13.33° C | 69% | 1026.5 hPa | - | - | 366 W/m² | - |
| 1777609813 | 13.33° C | 72% | 1026.4 hPa | - | - | 367 W/m² | - |
| 1777609214 | 13.33° C | 71% | 1026.3 hPa | - | - | 368 W/m² | - |
| 1777608614 | 13.33° C | 70% | 1026.3 hPa | - | - | 368 W/m² | - |
| 1777608015 | 13.33° C | 71% | 1026.2 hPa | - | - | 368 W/m² | - |
| 1777607415 | 13.33° C | 71% | 1026.1 hPa | - | - | 368 W/m² | - |
* Rain since midnight (hover to see other rain measurements)
** Current wind speed in m/s (hover to see current wind gust speed)